Temperature
12 13 13 13 13 13 13 13 13 14 14 14 14 14 14 14 14 14 14 14 14 14 14 14 14 14 14 14 14 14 14 15 14 15 14 14 14 14 14 15 15 15 14
13 13 13 13 13 13 13 13 13 13 13 13 14 14 14 14 14 14 14 14 14 14 14 14 14 14 14 14 14 14 14 14 14 14 14 14 14 14 14 14 14 14 14
13 13 13 13 12 12 12 12 13 13 13 13 13 13 13 14 14 14 14 14 14 14 14 14 14 14 14 14 14 14 14 14 14 14 14 14 14 14 14 14 14 14 14
12 12 12 12 12 12 12 12 12 13 13 13 13 13 13 13 13 13 14 14 14 14 14 14 14 14 14 13 13 13 13 13 14 14 14 14 13 13 14 14 14 14 14
12 12 12 12 12 12 12 12 12 12 12 13 13 13 13 13 13 13 13 13 13 13 14 14 14 13 13 13 13 13 13 13 13 13 13 13 13 13 13 13 13 13 13
12 12 12 12 12 12 12 12 12 12 12 12 12 12 12 12 13 13 13 13 13 13 13 13 13 13 13 13 13 13 13 13 13 13 13 13 13 13 13 13 13 13 13
12 12 12 11 11 12 12 12 12 12 12 12 12 12 12 12 12 12 12 12 13 13 13 13 13 13 13 13 13 13 12 12 12 13 13 13 12 12 13 13 13 13 13
11 11 11 11 11 11 11 11 11 11 11 11 12 12 12 12 12 12 12 12 12 12 12 12 12 12 12 12 12 12 12 12 12 12 12 12 12 12 12 12 12 12 12
11 11 11 11 11 11 11 11 11 11 11 11 11 11 12 12 12 12 12 12 12 12 12 12 12 12 12 12 12 12 12 12 12 12 12 12 12 12 12 12 12 12 12
11 11 11 11 11 11 11 11 11 11 11 11 11 11 11 11 11 11 11 12 12 11 11 12 12 12 12 12 12 12 12 12 12 12 12 12 12 12 12 12 12 12 12
10 10 10 10 10 10 10 10 11 11 11 11 11 11 11 11 11 11 11 11 11 11 11 11 11 11 11 11 11 11 11 12 12 12 11 11 12 12 12 12 12 12 12
10 10 10 10 10 10 10 10 10 10 10 10 10 10 10 10 10 11 11 11 11 11 11 11 11 11 11 11 11 11 11 11 11 11 11 11 11 11 11 11 11 11 11
9 9 9 9 9 9 10 10 10 10 10 10 10 10 10 10 10 10 10 10 10 10 10 10 10 11 11 11 11 11 11 11 11 11 11 11 11 11 11 11 11 11 11
9 9 9 9 9 9 9 9 9 9 9 9 9 9 9 10 10 10 10 10 10 10 10 10 10 10 10 10 10 10 11 11 11 11 11 11 11 11 11 11 11 11 11
9 9 8 8 8 9 9 9 9 9 9 9 9 9 9 9 9 9 9 9 9 9 9 9 10 10 10 10 10 10 10 10 10 10 10 10 10 10 10 10 10 10 10
8 8 8 8 8 8 8 8 8 8 8 8 8 8 8 9 9 9 9 9 9 9 9 9 9 9 9 9 9 9 9 10 10 10 10 10 10 10 10 10 10 10 10
8 8 8 8 7 7 8 8 8 8 8 8 8 8 8 8 8 8 8 8 8 8 8 8 8 8 9 9 9 9 9 9 9 9 10 10 10 10 10 10 10 10 10
8 7 7 7 7 7 7 7 7 7 7 7 7 7 7 7 8 8 8 8 8 8 8 8 8 8 8 8 8 8 8 8 9 9 9 9 9 9 9 9 9 9 9
7 7 7 7 7 7 7 6 7 7 6 6 6 7 7 7 7 7 7 7 7 7 7 7 7 7 8 8 8 8 8 8 8 8 8 8 9 9 9 9 9 9 9
7 6 6 6 6 6 6 6 6 6 6 6 6 6 6 6 6 6 6 6 6 6 7 7 7 7 7 7 7 7 7 7 7 7 8 8 8 8 8 8 8 8 8
6 6 6 6 6 6 6 6 5 5 5 5 5 5 5 5 5 5 5 5 6 6 6 6 6 6 6 6 6 6 6 6 7 7 7 7 7 7 7 7 7 7 7
6 5 5 5 5 5 5 5 5 5 5 5 5 5 5 5 5 5 5 5 5 5 5 5 5 5 5 5 6 5 6 6 6 6 6 6 6 6 7 7 7 7 7
5 5 5 5 5 5 5 4 4 4 4 4 4 4 4 4 4 4 4 4 4 4 5 5 5 5 5 5 5 5 5 5 5 5 6 6 6 6 6 6 6 6 6
5 5 4 4 4 4 4 4 4 4 4 4 4 4 4 4 4 4 4 4 4 4 4 4 4 4 4 4 4 5 5 5 4 4 5 5 5 5 5 5 5 5 5
4 4 4 4 4 4 4 3 3 3 3 3 3 3 3 3 3 3 3 3 3 3 4 4 4 4 4 4 4 4 4 4 4 4 4 4 5 5 5 5 5 5 5
4 4 3 3 3 3 3 3 3 3 3 3 3 3 3 3 3 3 3 3 3 3 3 3 3 3 3 3 3 3 3 3 4 4 3 3 4 4 4 4 4 4 4
Wind_Speed
2 3 6 6 8 8 9 10 10 10 11 11 11 12 12 13 13 13 13 13 13 13 13 13 14 14 13 14 14 13 13 13 14 14 15 15 14 15 15 15 14 14 15
3 5 7 8 8 9 10 10 10 10 10 11 11 11 12 12 12 12 12 12 12 12 13 13 13 13 13 13 13 13 13 13 14 14 14 14 14 14 15 15 14 13 15
4 6 8 9 9 9 10 11 10 10 10 10 11 11 11 11 11 11 11 11 12 12 12 12 12 12 12 12 12 13 13 13 14 14 13 12 12 13 14 15 15 15 15
6 7 8 9 9 9 10 10 10 10 9 9 10 10 10 10 10 11 11 11 11 12 12 12 11 12 12 12 12 12 12 12 13 12 11 11 11 13 14 14 14 14 14
7 8 8 9 9 9 9 10 10 10 9 9 9 10 10 10 10 10 10 10 10 11 11 11 11 11 11 11 12 12 12 12 12 11 11 10 10 12 13 13 13 13 14
7 8 9 9 9 9 9 10 10 9 9 8 8 9 9 9 9 9 9 10 10 10 10 10 10 10 11 11 11 11 11 11 11 11 10 10 9 11 12 12 12 12 13
6 7 8 10 10 9 9 9 9 8 8 8 8 8 8 8 8 8 9 9 9 9 9 9 9 10 10 10 10 11 10 10 11 10 9 9 9 10 11 10 11 11 11
7 7 8 9 10 10 9 9 8 8 8 7 7 7 8 8 8 8 8 8 8 8 8 8 9 9 9 9 9 10 10 9 9 8 8 7 8 9 9 9 9 10 10
7 7 7 8 8 8 8 9 8 7 7 7 7 7 7 7 7 7 7 7 7 8 7 8 8 8 8 8 8 9 9 9 8 6 6 6 7 8 8 8 8 8 8
7 7 7 8 8 7 7 7 8 7 7 6 7 7 8 7 7 7 6 6 6 6 7 7 7 7 7 7 7 8 8 8 7 6 5 5 6 7 7 7 7 7 7
5 5 6 6 7 6 6 6 6 7 6 6 6 7 7 7 6 5 5 6 5 5 6 7 6 7 7 6 7 7 7 6 6 6 5 5 6 6 6 6 6 6 6
3 3 4 5 5 5 5 6 6 6 5 5 6 6 6 6 5 5 5 5 5 5 5 6 6 6 6 6 6 6 6 6 6 5 4 5 5 6 6 6 6 5 5
3 3 3 3 4 5 4 4 4 4 5 5 5 5 5 5 5 5 5 5 5 5 5 5 5 5 5 5 5 5 5 5 5 4 4 5 5 6 6 6 6 6 6
3 3 2 3 3 4 4 4 4 4 3 4 4 4 4 4 4 4 4 4 4 4 4 4 4 4 4 4 4 4 4 4 4 4 3 4 5 5 6 6 6 6 7
3 3 2 2 3 3 3 3 3 3 3 3 4 4 4 3 3 3 3 3 3 3 3 3 3 3 3 3 3 4 3 4 3 3 3 5 5 5 5 6 6 7 7
3 3 2 2 2 2 2 2 2 2 3 3 3 3 4 4 3 2 2 2 2 2 2 2 2 2 2 3 3 3 3 3 3 3 4 4 5 5 5 4 5 6 7
4 3 3 3 2 2 2 2 2 3 3 3 3 3 4 4 3 3 2 1 1 1 2 3 3 3 3 3 2 2 3 3 3 3 3 3 4 4 4 4 4 5 6
4 3 3 2 2 2 2 1 2 3 3 3 3 3 4 4 3 3 2 1 1 2 2 2 2 1 1 1 1 1 2 2 3 3 3 3 3 3 3 4 4 4 5
5 4 3 2 2 2 2 2 2 2 3 3 3 3 3 3 3 3 2 1 1 2 2 2 1 1 1 1 0 1 1 1 1 2 3 3 3 3 3 3 3 4 4
4 4 3 2 2 2 2 2 2 2 2 2 2 2 3 3 2 3 2 2 2 2 1 1 1 1 1 1 1 1 2 1 1 2 1 2 2 3 3 3 2 2 3
4 3 3 3 2 2 2 2 1 1 0 0 1 1 2 2 2 3 2 1 2 1 1 2 2 2 1 1 1 1 2 2 1 1 1 2 2 2 3 2 2 3 2
4 4 3 3 3 3 2 2 1 1 1 0 1 0 1 1 2 2 1 1 1 1 1 2 2 1 1 1 2 2 0 2 2 1 1 0 1 2 2 2 2 2 2
4 5 4 4 3 3 2 1 1 1 1 0 1 1 1 2 1 1 1 1 1 1 1 1 2 3 3 1 1 2 2 3 1 2 2 1 0 1 1 2 2 2 1
4 3 3 3 3 3 3 3 3 2 2 2 2 2 2 2 2 2 2 1 2 1 2 2 1 2 4 3 1 0 1 2 2 1 2 2 1 0 1 1 1 1 0
3 3 3 2 2 2 3 4 3 2 1 1 1 1 2 2 2 2 2 2 1 2 2 2 1 1 2 3 3 1 0 0 1 2 2 1 2 1 1 1 0 1 1
2 2 2 3 2 2 2 3 4 3 2 1 1 2 2 1 2 2 2 2 2 2 3 2 2 2 1 2 2 2 2 2 2 1 2 2 2 2 2 1 1 1 2
Wind_Direction
195 169 144 126 115 105 102 101 96 92 88 87 86 86 83 81 79 76 75 73 70 69 68 66 66 67 68 69 67 66 68 72 76 79 79 80 82 84 84 83 80 78 79
169 155 144 129 118 109 104 101 99 96 93 90 89 89 85 82 81 78 76 74 74 72 71 69 65 64 65 66 65 65 70 73 79 82 81 78 81 86 86 83 81 82 81
118 136 137 126 119 112 107 101 99 97 96 94 93 92 89 85 84 81 78 76 75 75 74 70 66 63 62 61 65 67 71 76 82 83 79 75 81 86 86 83 81 83 82
107 120 125 123 119 115 110 106 100 97 98 98 95 93 91 88 86 83 81 79 77 76 75 72 67 62 59 61 65 67 69 78 84 81 75 73 80 87 87 84 82 82 81
95 104 111 118 119 116 112 109 105 100 98 98 96 94 92 89 87 85 83 80 78 77 75 73 69 63 60 64 64 66 69 79 84 77 73 73 80 88 89 88 86 84 83
89 97 102 107 109 110 112 112 108 103 98 96 98 97 94 90 87 86 86 82 79 79 76 73 69 66 62 62 63 66 69 75 78 72 71 75 85 92 93 92 90 87 86
95 98 104 100 100 97 98 103 109 106 102 98 97 100 96 92 88 89 90 86 82 82 81 76 71 67 64 60 60 64 69 70 72 70 68 73 86 94 96 95 96 92 91
102 94 98 101 99 95 91 88 96 105 102 98 96 95 96 94 91 94 95 90 86 84 80 78 74 70 66 62 60 60 69 72 71 71 71 76 89 94 99 100 100 98 95
92 87 83 91 95 96 92 88 82 87 97 98 93 90 92 95 93 94 99 97 89 85 83 80 76 74 69 63 61 60 64 69 73 72 78 80 92 97 99 98 103 102 99
77 73 76 79 82 86 91 92 85 80 84 96 94 91 89 91 92 92 96 101 96 90 86 81 77 74 72 66 61 61 58 59 69 75 79 87 101 106 104 102 105 105 102
75 64 64 72 76 80 84 86 83 83 81 90 94 92 90 87 86 87 93 97 99 95 90 83 78 75 72 68 62 60 53 59 68 71 82 93 109 115 112 109 107 107 107
100 82 66 64 70 79 82 81 77 77 78 83 90 94 93 91 91 87 89 91 91 89 86 81 81 76 71 66 61 60 59 61 69 68 78 93 107 116 116 113 112 111 112
143 105 77 71 74 75 77 82 80 77 73 74 79 93 100 94 87 82 82 80 80 84 79 77 80 74 69 70 68 68 66 65 65 65 70 91 97 113 120 120 114 113 111
126 115 86 73 75 76 87 88 87 80 76 72 68 79 100 95 83 80 79 75 78 81 75 74 82 76 68 71 78 82 73 74 74 68 69 86 90 98 115 121 120 120 113
142 134 116 81 81 84 90 92 92 88 84 80 74 73 84 94 96 93 90 83 79 74 70 77 86 84 72 68 79 86 79 77 84 81 77 82 85 87 100 115 115 116 115
162 159 148 112 94 94 94 98 111 110 108 95 79 74 77 83 101 103 97 81 65 59 62 74 89 99 92 86 78 77 80 87 92 93 89 88 86 85 87 102 112 115 112
176 166 159 148 114 109 106 109 115 123 121 108 98 85 79 73 83 108 111 105 82 77 87 82 75 83 81 78 71 66 70 78 89 91 90 95 95 89 86 85 98 113 111
162 165 174 154 133 120 109 109 112 124 117 112 110 93 83 78 78 90 105 131 148 122 108 102 97 89 71 71 57 37 45 63 79 87 88 92 97 94 90 85 86 108 116
164 165 169 161 148 127 104 89 103 111 107 110 113 105 99 93 83 94 92 96 133 122 118 131 109 123 119 75 41 17 29 65 74 76 76 82 93 95 96 95 91 91 105
158 162 166 155 135 114 104 85 79 78 82 100 115 119 118 114 99 88 97 72 74 118 140 138 130 106 140 147 90 25 351 5 70 77 66 65 80 99 96 87 85 85 94
152 158 163 153 148 133 140 149 161 193 193 77 84 134 129 121 121 100 86 113 81 120 172 155 143 138 146 136 109 41 350 341 7 35 61 61 53 70 92 93 89 78 75
170 173 171 169 168 168 169 179 190 191 204 226 354 337 155 144 143 131 119 175 133 95 106 159 136 161 192 161 142 141 286 320 328 328 356 127 68 57 70 95 105 101 76
181 188 184 184 179 173 138 108 86 66 39 6 295 276 271 216 194 167 157 189 173 150 167 194 175 171 185 217 186 158 167 216 268 318 328 322 122 97 64 63 89 97 100
192 182 181 186 181 175 149 151 150 166 205 238 242 247 266 239 223 203 175 195 183 172 189 199 188 197 176 193 219 269 208 161 172 235 314 336 349 167 172 88 75 67 85
185 177 182 174 176 179 168 171 172 185 218 255 252 237 245 263 232 219 204 193 202 192 198 202 200 213 195 191 191 189 178 14 148 174 220 288 330 303 269 194 158 294 265
181 177 180 179 181 172 168 180 186 194 210 232 249 237 248 260 255 254 232 213 219 213 204 206 205 206 212 204 188 186 181 189 197 182 204 236 269 284 288 241 211 249 260
Height
1544 1545 1546 1546 1547 1547 1547 1547 1547 1547 1547 1547 1547 1547 1547 1547 1547 1547 1548 1547 1548 1548 1547 1547 1547 1546 1546 1546 1545 1544 1544 1543 1542 1543 1543 1544 1544 1544 1544 1544 1544 1544 1544
1543 1544 1545 1546 1547 1547 1547 1547 1547 1547 1547 1548 1548 1548 1548 1548 1548 1548 1548 1548 1548 1548 1548 1548 1547 1547 1547 1546 1546 1545 1544 1543 1543 1543 1544 1545 1545 1545 1546 1546 1546 1546 1545
1542 1544 1545 1546 1546 1547 1547 1547 1547 1548 1548 1548 1548 1548 1548 1548 1548 1548 1548 1548 1549 1549 1548 1548 1548 1547 1547 1547 1546 1546 1545 1545 1544 1545 1545 1546 1546 1547 1547 1547 1547 1547 1547
1542 1543 1544 1545 1546 1547 1547 1547 1547 1548 1548 1548 1548 1549 1549 1549 1549 1549 1549 1549 1549 1549 1549 1549 1548 1548 1548 1547 1547 1547 1546 1546 1546 1546 1547 1547 1547 1548 1548 1548 1548 1548 1548
1542 1543 1544 1545 1546 1546 1547 1547 1547 1548 1548 1548 1548 1549 1549 1549 1549 1549 1549 1549 1549 1549 1549 1549 1549 1548 1548 1548 1548 1548 1547 1547 1547 1547 1548 1548 1548 1549 1549 1549 1549 1549 1549
1541 1542 1543 1544 1545 1546 1547 1547 1547 1547 1548 1548 1548 1548 1549 1549 1549 1549 1549 1549 1549 1549 1549 1549 1549 1548 1548 1548 1548 1548 1548 1548 1548 1548 1548 1549 1549 1550 1550 1550 1550 1550 1550
1540 1541 1543 1544 1544 1545 1546 1546 1547 1547 1547 1548 1548 1548 1548 1548 1548 1549 1549 1548 1549 1549 1549 1548 1549 1548 1548 1548 1548 1548 1548 1548 1548 1549 1549 1550 1550 1550 1551 1551 1551 1551 1551
1540 1541 1542 1543 1544 1545 1545 1546 1546 1547 1547 1547 1547 1548 1548 1548 1548 1548 1548 1548 1548 1548 1548 1548 1548 1548 1548 1548 1549 1549 1549 1549 1549 1549 1550 1550 1550 1551 1551 1552 1552 1552 1552
1539 1540 1541 1542 1543 1544 1545 1545 1546 1546 1547 1547 1547 1547 1547 1547 1547 1548 1548 1548 1548 1548 1548 1548 1548 1548 1548 1548 1548 1549 1549 1549 1549 1549 1550 1550 1551 1551 1551 1552 1552 1552 1553
1539 1539 1540 1541 1542 1543 1544 1544 1545 1545 1546 1546 1546 1546 1546 1547 1547 1547 1547 1547 1547 1547 1547 1547 1547 1547 1547 1548 1548 1548 1549 1549 1549 1549 1550 1551 1551 1551 1552 1552 1552 1553 1553
1537 1538 1539 1540 1540 1541 1542 1543 1544 1544 1545 1545 1545 1545 1546 1546 1546 1546 1546 1546 1546 1546 1546 1546 1547 1547 1547 1547 1547 1548 1548 1549 1549 1549 1550 1550 1551 1551 1551 1552 1552 1552 1553
1535 1536 1537 1538 1539 1540 1541 1542 1542 1543 1544 1544 1544 1544 1544 1544 1545 1545 1545 1545 1545 1545 1545 1545 1546 1546 1546 1546 1547 1547 1548 1548 1549 1549 1549 1550 1550 1551 1551 1551 1552 1552 1552
1533 1535 1536 1537 1538 1539 1539 1540 1541 1541 1542 1542 1543 1543 1543 1543 1543 1543 1544 1544 1544 1544 1544 1544 1545 1545 1545 1545 1545 1546 1547 1547 1548 1548 1549 1549 1550 1550 1550 1551 1551 1551 1551
1532 1533 1534 1535 1536 1537 1538 1538 1539 1539 1540 1540 1541 1541 1541 1541 1541 1541 1542 1542 1542 1542 1542 1543 1543 1543 1543 1544 1544 1545 1546 1546 1546 1547 1548 1548 1549 1549 1549 1550 1550 1551 1551
1530 1531 1532 1533 1534 1535 1536 1536 1537 1537 1538 1538 1539 1539 1539 1540 1540 1540 1540 1540 1541 1541 1541 1541 1541 1541 1542 1542 1543 1543 1544 1544 1545 1546 1547 1547 1548 1548 1549 1549 1549 1550 1550
1528 1529 1531 1531 1532 1533 1534 1534 1535 1535 1536 1536 1537 1537 1538 1538 1538 1538 1538 1538 1539 1539 1539 1539 1539 1539 1540 1540 1541 1541 1542 1543 1543 1544 1545 1546 1546 1547 1547 1548 1548 1549 1549
1526 1527 1528 1529 1530 1531 1532 1532 1533 1533 1534 1534 1535 1535 1535 1536 1536 1535 1536 1536 1536 1537 1537 1537 1537 1537 1538 1538 1539 1539 1540 1541 1541 1542 1543 1544 1544 1545 1545 1546 1547 1547 1548
1524 1525 1526 1527 1528 1529 1530 1530 1531 1531 1532 1532 1532 1533 1533 1533 1533 1533 1533 1534 1534 1534 1534 1534 1534 1535 1535 1536 1536 1537 1538 1538 1539 1539 1540 1541 1542 1543 1543 1544 1545 1546 1546
1521 1523 1524 1525 1525 1526 1527 1528 1529 1529 1529 1530 1530 1530 1530 1531 1531 1531 1530 1531 1531 1531 1531 1532 1532 1532 1533 1533 1534 1534 1535 1535 1536 1537 1538 1539 1539 1540 1541 1542 1542 1543 1544
1519 1520 1521 1522 1523 1524 1525 1525 1526 1526 1527 1527 1527 1527 1528 1528 1528 1528 1528 1528 1528 1528 1528 1528 1529 1530 1530 1530 1531 1531 1532 1533 1533 1534 1535 1536 1537 1537 1538 1539 1540 1540 1541
1516 1518 1518 1519 1520 1521 1521 1522 1522 1523 1523 1524 1524 1525 1525 1525 1525 1525 1525 1525 1524 1524 1525 1525 1526 1527 1527 1528 1528 1529 1530 1530 1530 1531 1532 1533 1534 1534 1535 1536 1536 1537 1538
1513 1514 1516 1516 1517 1518 1518 1519 1520 1520 1520 1521 1522 1522 1522 1522 1522 1522 1522 1521 1521 1521 1521 1522 1522 1523 1524 1525 1525 1526 1527 1528 1527 1528 1528 1529 1530 1532 1532 1532 1533 1534 1535
1510 1512 1512 1513 1514 1515 1515 1516 1517 1518 1518 1518 1518 1519 1519 1519 1519 1519 1519 1519 1518 1518 1518 1519 1519 1520 1520 1522 1523 1523 1524 1523 1524 1524 1525 1526 1527 1529 1529 1529 1530 1531 1532
1508 1509 1510 1511 1511 1512 1512 1513 1513 1513 1513 1514 1515 1515 1516 1516 1516 1516 1516 1516 1516 1516 1516 1516 1516 1517 1517 1518 1519 1520 1521 1520 1521 1520 1522 1522 1524 1525 1526 1526 1527 1528 1528
1505 1506 1507 1508 1508 1509 1509 1510 1510 1511 1511 1512 1512 1513 1513 1513 1513 1513 1513 1513 1513 1512 1513 1513 1513 1513 1514 1515 1515 1516 1517 1518 1518 1518 1517 1519 1520 1521 1522 1523 1523 1524 1524
1502 1503 1503 1504 1505 1505 1505 1506 1507 1508 1508 1508 1509 1509 1509 1509 1510 1510 1510 1510 1510 1509 1509 1509 1510 1510 1510 1511 1512 1513 1513 1514 1514 1514 1514 1515 1516 1517 1518 1519 1520 1520 1521